| time (UTC) | temp C | wind direction | speed KPH | gust KPH | rain 1hr cm | rain 24hr cm | rain mn cm | humidity % | barometer mb |
| 20260507110007 | 11 | 227 | 6.4 | 9.7 | 0.00 | 0.00 | 0.00 | 94 | 1021.3 |
| 20260507105507 | 11 | 126 | 4.8 | 11.3 | 0.00 | 0.00 | 0.00 | 94 | 1021.3 |
| 20260507105007 | 11 | 170 | 6.4 | 9.7 | 0.00 | 0.00 | 0.00 | 94 | 1021.3 |
| 20260507104507 | 11 | 243 | 8.0 | 9.7 | 0.00 | 0.00 | 0.00 | 94 | 1021.3 |
| 20260507104007 | 11 | 135 | 8.0 | 9.7 | 0.00 | 0.00 | 0.00 | 93 | 1021.3 |
| 20260507103507 | 11 | 234 | 3.2 | 9.7 | 0.00 | 0.00 | 0.00 | 94 | 1021.3 |
| 20260507103006 | 11 | 225 | 1.6 | 8.0 | 0.00 | 0.00 | 0.00 | 94 | 1021.3 |
| 20260507102507 | 11 | 317 | 6.4 | 9.7 | 0.00 | 0.00 | 0.00 | 94 | 1021.3 |
| 20260507102007 | 11 | 297 | 3.2 | 9.7 | 0.00 | 0.00 | 0.00 | 94 | 1021.3 |
| 20260507101507 | 11 | 144 | 6.4 | 9.7 | 0.00 | 0.00 | 0.00 | 94 | 1021.5 |
| 20260507101007 | 12 | 0 | 1.6 | 8.0 | 0.00 | 0.00 | 0.00 | 94 | 1021.7 |
| 20260507100507 | 12 | 198 | 4.8 | 8.0 | 0.00 | 0.00 | 0.00 | 94 | 1021.7 |
| 20260507100007 | 12 | 270 | 0.0 | 1.6 | 0.00 | 0.00 | 0.00 | 94 | 1021.7 |
| 20260507095507 | 12 | 153 | 3.2 | 8.0 | 0.00 | 0.00 | 0.00 | 94 | 1021.7 |
| 20260507095006 | 12 | 325 | 1.6 | 4.8 | 0.00 | 0.00 | 0.00 | 94 | 1021.7 |
| 20260507094507 | 12 | 252 | 1.6 | 4.8 | 0.00 | 0.00 | 0.00 | 94 | 1021.7 |
| 20260507094007 | 12 | 0 | 0.0 | 0.0 | 0.00 | 0.00 | 0.00 | 94 | 1021.7 |
| 20260507093507 | 12 | 0 | 1.6 | 4.8 | 0.00 | 0.00 | 0.00 | 94 | 1021.7 |
| 20260507093007 | 12 | 293 | 6.4 | 9.7 | 0.00 | 0.00 | 0.00 | 94 | 1021.7 |
| 20260507092506 | 12 | 315 | 4.8 | 8.0 | 0.00 | 0.00 | 0.00 | 94 | 1021.7 |
| 20260507092007 | 12 | 171 | 4.8 | 9.7 | 0.00 | 0.00 | 0.00 | 93 | 1021.7 |
| 20260507091507 | 12 | 181 | 8.0 | 12.9 | 0.00 | 0.00 | 0.00 | 93 | 1021.9 |
| 20260507091007 | 12 | 171 | 4.8 | 9.7 | 0.00 | 0.00 | 0.00 | 93 | 1022.0 |
| 20260507090507 | 12 | 181 | 4.8 | 9.7 | 0.00 | 0.00 | 0.00 | 93 | 1022.0 |
| 20260507090008 | 12 | 243 | 6.4 | 11.3 | 0.00 | 0.00 | 0.00 | 93 | 1022.0 |
| 20260507085506 | 12 | 234 | 4.8 | 8.0 | 0.00 | 0.00 | 0.00 | 93 | 1022.0 |
| 20260507085007 | 12 | 135 | 8.0 | 9.7 | 0.00 | 0.00 | 0.00 | 93 | 1022.0 |
| 20260507084508 | 12 | 225 | 8.0 | 11.3 | 0.00 | 0.00 | 0.00 | 93 | 1022.0 |
| 20260507084007 | 12 | 153 | 8.0 | 11.3 | 0.00 | 0.00 | 0.00 | 93 | 1022.0 |
| 20260507083506 | 12 | 270 | 6.4 | 8.0 | 0.00 | 0.00 | 0.00 | 93 | 1022.0 |
| 20260507083007 | 12 | 72 | 8.0 | 9.7 | 0.00 | 0.00 | 0.00 | 93 | 1022.0 |
| 20260507082507 | 12 | 190 | 4.8 | 8.0 | 0.00 | 0.00 | 0.00 | 93 | 1022.0 |
| 20260507082007 | 12 | 270 | 6.4 | 11.3 | 0.00 | 0.00 | 0.00 | 93 | 1022.0 |
| 20260507081507 | 12 | 262 | 4.8 | 8.0 | 0.00 | 0.00 | 0.00 | 94 | 1022.0 |
| 20260507081006 | 12 | 253 | 6.4 | 8.0 | 0.00 | 0.00 | 0.00 | 94 | 1022.0 |
| 20260507080508 | 12 | 158 | 6.4 | 8.0 | 0.00 | 0.00 | 0.00 | 93 | 1021.9 |
| 20260507080006 | 12 | 162 | 9.7 | 12.9 | 0.00 | 0.00 | 0.00 | 94 | 1022.0 |
| 20260507075507 | 12 | 216 | 8.0 | 12.9 | 0.00 | 0.00 | 0.00 | 94 | 1022.0 |
| 20260507075007 | 12 | 271 | 4.8 | 9.7 | 0.00 | 0.00 | 0.00 | 94 | 1022.0 |
| 20260507074507 | 12 | 293 | 4.8 | 8.0 | 0.00 | 0.00 | 0.00 | 94 | 1022.0 |
| 20260507074007 | 12 | 270 | 1.6 | 4.8 | 0.00 | 0.00 | 0.00 | 94 | 1022.0 |
| 20260507073507 | 12 | 326 | 4.8 | 8.0 | 0.00 | 0.00 | 0.00 | 94 | 1022.0 |
| 20260507073006 | 12 | 297 | 6.4 | 8.0 | 0.00 | 0.00 | 0.00 | 94 | 1021.9 |
| 20260507072507 | 12 | 279 | 6.4 | 8.0 | 0.00 | 0.00 | 0.00 | 94 | 1021.7 |
| 20260507072008 | 12 | 259 | 4.8 | 8.0 | 0.00 | 0.00 | 0.00 | 94 | 1021.7 |
| 20260507071506 | 12 | 216 | 4.8 | 9.7 | 0.00 | 0.00 | 0.00 | 94 | 1021.7 |
| 20260507071007 | 12 | 0 | 4.8 | 9.7 | 0.00 | 0.00 | 0.00 | 94 | 1021.7 |
| 20260507070508 | 12 | 18 | 3.2 | 8.0 | 0.00 | 0.00 | 0.00 | 94 | 1021.7 |
| 20260507070010 | 12 | 117 | 4.8 | 8.0 | 0.00 | 0.00 | 0.00 | 94 | 1021.7 |
| 20260507065507 | 12 | 249 | 4.8 | 6.4 | 0.00 | 0.00 | 0.00 | 94 | 1021.7 |
| 20260507065007 | 12 | 328 | 9.7 | 11.3 | 0.00 | 0.00 | 0.00 | 94 | 1021.7 |
| 20260507064506 | 12 | 193 | 9.7 | 12.9 | 0.00 | 0.00 | 0.00 | 94 | 1021.7 |
| 20260507064007 | 12 | 234 | 9.7 | 11.3 | 0.00 | 0.00 | 0.00 | 94 | 1021.7 |
| 20260507063507 | 12 | 279 | 8.0 | 11.3 | 0.00 | 0.00 | 0.00 | 94 | 1021.7 |
| 20260507063007 | 12 | 135 | 6.4 | 11.3 | 0.00 | 0.00 | 0.00 | 94 | 1021.7 |
| 20260507062507 | 12 | 189 | 3.2 | 12.9 | 0.00 | 0.00 | 0.00 | 94 | 1021.7 |
| 20260507062008 | 12 | 200 | 4.8 | 9.7 | 0.00 | 0.00 | 0.00 | 94 | 1021.7 |
| 20260507061507 | 12 | 300 | 6.4 | 9.7 | 0.00 | 0.00 | 0.00 | 94 | 1022.0 |
| 20260507061007 | 12 | 162 | 4.8 | 8.0 | 0.00 | 0.00 | 0.00 | 94 | 1022.0 |
| 20260507060507 | 12 | 234 | 8.0 | 11.3 | 0.00 | 0.00 | 0.00 | 94 | 1021.7 |
| 20260507060007 | 12 | 180 | 4.8 | 9.7 | 0.00 | 0.00 | 0.00 | 94 | 1021.7 |
| 20260507055507 | 12 | 279 | 4.8 | 9.7 | 0.00 | 0.00 | 0.00 | 94 | 1021.9 |
| 20260507055007 | 12 | 135 | 1.6 | 8.0 | 0.00 | 0.00 | 0.00 | 94 | 1021.7 |
| 20260507054507 | 12 | 90 | 1.6 | 3.2 | 0.00 | 0.00 | 0.00 | 94 | 1021.7 |
| 20260507054007 | 13 | 146 | 1.6 | 8.0 | 0.00 | 0.00 | 0.00 | 94 | 1021.7 |
| 20260507053507 | 13 | 293 | 4.8 | 8.0 | 0.00 | 0.00 | 0.00 | 94 | 1021.8 |
| 20260507053007 | 13 | 315 | 3.2 | 6.4 | 0.00 | 0.00 | 0.00 | 94 | 1021.7 |
| 20260507052507 | 13 | 225 | 0.0 | 1.6 | 0.00 | 0.00 | 0.00 | 94 | 1021.7 |
| 20260507052007 | 13 | 225 | 1.6 | 3.2 | 0.00 | 0.00 | 0.00 | 94 | 1021.7 |
| 20260507051507 | 13 | 279 | 3.2 | 8.0 | 0.00 | 0.00 | 0.00 | 93 | 1021.7 |
| 20260507051007 | 13 | 279 | 1.6 | 8.0 | 0.00 | 0.00 | 0.00 | 93 | 1021.7 |
| 20260507050507 | 13 | 225 | 3.2 | 6.4 | 0.00 | 0.00 | 0.00 | 93 | 1021.7 |
| 20260507050007 | 13 | 117 | 4.8 | 11.3 | 0.00 | 0.00 | 0.00 | 93 | 1021.7 |
| 20260507045506 | 13 | 135 | 3.2 | 11.3 | 0.00 | 0.00 | 0.00 | 93 | 1021.7 |
| 20260507045007 | 13 | 306 | 3.2 | 8.0 | 0.00 | 0.00 | 0.00 | 93 | 1021.7 |
| 20260507044507 | 13 | 54 | 3.2 | 6.4 | 0.00 | 0.00 | 0.00 | 93 | 1021.7 |
| 20260507044007 | 13 | 54 | 4.8 | 8.0 | 0.00 | 0.00 | 0.00 | 93 | 1021.7 |
| 20260507043507 | 13 | 180 | 4.8 | 8.0 | 0.00 | 0.00 | 0.00 | 93 | 1021.7 |
| 20260507043007 | 13 | 108 | 3.2 | 4.8 | 0.00 | 0.00 | 0.00 | 93 | 1021.7 |
| 20260507042506 | 13 | 180 | 4.8 | 8.0 | 0.00 | 0.00 | 0.00 | 93 | 1021.7 |
| 20260507042008 | 14 | 261 | 1.6 | 4.8 | 0.00 | 0.00 | 0.00 | 93 | 1021.7 |
| 20260507041507 | 14 | 99 | 4.8 | 9.7 | 0.00 | 0.00 | 0.00 | 93 | 1021.6 |
| 20260507041007 | 14 | 153 | 11.3 | 12.9 | 0.00 | 0.00 | 0.00 | 93 | 1021.4 |
| 20260507040507 | 14 | 245 | 4.8 | 8.0 | 0.00 | 0.00 | 0.00 | 93 | 1021.3 |
| 20260507040007 | 14 | 198 | 6.4 | 14.5 | 0.00 | 0.00 | 0.00 | 92 | 1021.3 |
| 20260507035507 | 14 | 248 | 11.3 | 14.5 | 0.00 | 0.00 | 0.00 | 92 | 1021.3 |
| 20260507035007 | 15 | 163 | 6.4 | 9.7 | 0.00 | 0.00 | 0.00 | 92 | 1021.3 |
| 20260507034507 | 15 | 272 | 4.8 | 9.7 | 0.00 | 0.00 | 0.00 | 92 | 1021.1 |
| 20260507034007 | 15 | 90 | 3.2 | 8.0 | 0.00 | 0.00 | 0.00 | 92 | 1021.0 |
| 20260507033507 | 15 | 207 | 4.8 | 11.3 | 0.00 | 0.00 | 0.00 | 92 | 1021.0 |
| 20260507033007 | 15 | 252 | 8.0 | 11.3 | 0.00 | 0.00 | 0.00 | 92 | 1021.0 |
| 20260507032507 | 15 | 226 | 6.4 | 11.3 | 0.00 | 0.00 | 0.00 | 92 | 1020.9 |
| 20260507032007 | 15 | 225 | 3.2 | 4.8 | 0.00 | 0.00 | 0.00 | 92 | 1020.7 |
| 20260507031507 | 15 | 252 | 4.8 | 9.7 | 0.00 | 0.00 | 0.00 | 92 | 1020.7 |
| 20260507031007 | 15 | 307 | 4.8 | 9.7 | 0.00 | 0.00 | 0.00 | 92 | 1020.7 |
| 20260507030507 | 15 | 181 | 3.2 | 8.0 | 0.00 | 0.00 | 0.00 | 92 | 1020.7 |
| 20260507030006 | 15 | 99 | 3.2 | 8.0 | 0.00 | 0.00 | 0.00 | 92 | 1020.6 |
| 20260507025507 | 16 | 180 | 8.0 | 11.3 | 0.00 | 0.00 | 0.00 | 92 | 1020.3 |
| 20260507025007 | 16 | 198 | 6.4 | 12.9 | 0.00 | 0.00 | 0.00 | 91 | 1020.3 |
| 20260507024507 | 16 | 272 | 8.0 | 12.9 | 0.00 | 0.00 | 0.00 | 91 | 1020.3 |
| 20260507024007 | 16 | 316 | 6.4 | 9.7 | 0.00 | 0.00 | 0.00 | 90 | 1020.3 |
| 20260507023507 | 16 | 288 | 4.8 | 8.0 | 0.00 | 0.00 | 0.00 | 89 | 1020.3 |
| 20260507023006 | 16 | 217 | 4.8 | 8.0 | 0.00 | 0.00 | 0.00 | 88 | 1020.3 |
| 20260507022507 | 16 | 154 | 6.4 | 8.0 | 0.00 | 0.00 | 0.00 | 88 | 1020.3 |
| 20260507022007 | 16 | 81 | 4.8 | 9.7 | 0.00 | 0.00 | 0.00 | 87 | 1020.3 |
| 20260507021507 | 17 | 135 | 3.2 | 6.4 | 0.00 | 0.00 | 0.00 | 88 | 1020.3 |
| 20260507021007 | 17 | 315 | 3.2 | 11.3 | 0.00 | 0.00 | 0.00 | 88 | 1020.3 |
| 20260507020507 | 17 | 297 | 4.8 | 9.7 | 0.00 | 0.00 | 0.00 | 87 | 1020.3 |
| 20260507020007 | 17 | 198 | 6.4 | 9.7 | 0.00 | 0.00 | 0.00 | 85 | 1020.3 |
| 20260507015507 | 17 | 207 | 3.2 | 9.7 | 0.00 | 0.00 | 0.00 | 84 | 1020.3 |
| 20260507015006 | 17 | 100 | 8.0 | 9.7 | 0.00 | 0.00 | 0.00 | 84 | 1020.3 |
| 20260507014507 | 17 | 146 | 8.0 | 11.3 | 0.00 | 0.00 | 0.00 | 84 | 1020.3 |
| 20260507014007 | 17 | 216 | 8.0 | 11.3 | 0.00 | 0.00 | 0.00 | 84 | 1020.3 |
| 20260507013507 | 17 | 208 | 11.3 | 14.5 | 0.00 | 0.00 | 0.00 | 84 | 1020.3 |
| 20260507013007 | 17 | 169 | 11.3 | 12.9 | 0.00 | 0.00 | 0.00 | 83 | 1020.3 |
| 20260507012507 | 18 | 113 | 11.3 | 12.9 | 0.00 | 0.00 | 0.00 | 80 | 1020.3 |
| 20260507012007 | 18 | 248 | 11.3 | 12.9 | 0.00 | 0.00 | 0.00 | 79 | 1020.3 |
| 20260507011507 | 18 | 170 | 9.7 | 11.3 | 0.00 | 0.00 | 0.00 | 77 | 1020.3 |
| 20260507010507 | 19 | 253 | 8.0 | 9.7 | 0.00 | 0.00 | 0.00 | 77 | 1020.3 |
| 20260507010007 | 19 | 215 | 6.4 | 12.9 | 0.00 | 0.00 | 0.00 | 75 | 1020.3 |
| 20260507005507 | 19 | 225 | 9.7 | 12.9 | 0.00 | 0.00 | 0.00 | 74 | 1020.3 |
| 20260507005008 | 19 | 315 | 12.9 | 12.9 | 0.00 | 0.00 | 0.00 | 75 | 1020.3 |
| 20260507004507 | 20 | 225 | 11.3 | 16.1 | 0.00 | 0.00 | 0.00 | 71 | 1020.2 |
| 20260507004007 | 20 | 60 | 8.0 | 12.9 | 0.00 | 0.00 | 0.00 | 71 | 1020.0 |
| 20260507003507 | 20 | 158 | 8.0 | 12.9 | 0.00 | 0.00 | 0.00 | 74 | 1020.0 |
| 20260507003007 | 20 | 243 | 8.0 | 9.7 | 0.00 | 0.00 | 0.00 | 75 | 1020.0 |
| 20260507002507 | 20 | 288 | 3.2 | 8.0 | 0.00 | 0.00 | 0.00 | 76 | 1020.0 |
| 20260507002007 | 20 | 261 | 4.8 | 8.0 | 0.00 | 0.00 | 0.00 | 79 | 1020.0 |
| 20260507001507 | 20 | 79 | 6.4 | 9.7 | 0.00 | 0.00 | 0.00 | 78 | 1020.0 |
| 20260507001007 | 20 | 340 | 9.7 | 11.3 | 0.00 | 0.00 | 0.00 | 79 | 1020.0 |
| 20260507000507 | 20 | 243 | 8.0 | 9.7 | 0.00 | 0.00 | 0.00 | 78 | 1020.0 |
| 20260507000007 | 20 | 248 | 9.7 | 12.9 | 0.00 | 0.00 | 0.00 | 77 | 1020.0 |
| 20260506235507 | 20 | 158 | 4.8 | 9.7 | 0.00 | 0.00 | 0.00 | 75 | 1020.0 |
| 20260506234007 | 21 | 81 | 0.0 | 6.4 | 0.00 | 0.00 | 0.00 | 75 | 1019.6 |
| 20260506233506 | 21 | 79 | 4.8 | 9.7 | 0.00 | 0.00 | 0.00 | 73 | 1019.6 |
| 20260506233008 | 21 | 0 | 0.0 | 0.0 | 0.00 | 0.00 | 0.00 | 73 | 1019.8 |
| 20260506231507 | 22 | 165 | 3.2 | 4.8 | 0.00 | 0.00 | 0.00 | 67 | 1019.6 |
| 20260506231007 | 22 | 180 | 0.0 | 8.0 | 0.00 | 0.00 | 0.00 | 70 | 1020.0 |
| 20260506230507 | 22 | 180 | 4.8 | 9.7 | 0.00 | 0.00 | 0.00 | 67 | 1020.0 |
| 20260506230006 | 21 | 90 | 8.0 | 9.7 | 0.00 | 0.00 | 0.00 | 67 | 1020.0 |
| 20260506225506 | 21 | 54 | 3.2 | 8.0 | 0.00 | 0.00 | 0.00 | 67 | 1020.0 |
| 20260506225007 | 21 | 245 | 3.2 | 8.0 | 0.00 | 0.00 | 0.00 | 68 | 1020.0 |
| 20260506224508 | 21 | 135 | 0.0 | 1.6 | 0.00 | 0.00 | 0.00 | 70 | 1020.0 |
| 20260506224007 | 21 | 135 | 1.6 | 6.4 | 0.00 | 0.00 | 0.00 | 70 | 1020.3 |
| 20260506223507 | 20 | 234 | 1.6 | 6.4 | 0.00 | 0.00 | 0.00 | 75 | 1020.3 |
| 20260506223007 | 20 | 315 | 1.6 | 8.0 | 0.00 | 0.00 | 0.00 | 79 | 1020.3 |
| 20260506222507 | 20 | 315 | 0.0 | 0.0 | 0.00 | 0.00 | 0.00 | 80 | 1020.3 |
| 20260506222007 | 20 | 315 | 1.6 | 4.8 | 0.00 | 0.00 | 0.00 | 80 | 1020.3 |
| 20260506221508 | 20 | 345 | 1.6 | 4.8 | 0.00 | 0.00 | 0.00 | 78 | 1020.3 |
| 20260506221007 | 20 | 327 | 1.6 | 3.2 | 0.00 | 0.00 | 0.00 | 77 | 1020.5 |
| 20260506220507 | 20 | 365 | 0.0 | 0.0 | 0.00 | 0.00 | 0.00 | 75 | 1020.3 |
| 20260506220006 | 21 | 365 | 0.0 | 0.0 | 0.00 | 0.00 | 0.00 | 73 | 1020.3 |
| 20260506215507 | 21 | 365 | 1.6 | 8.0 | 0.00 | 0.00 | 0.00 | 71 | 1020.3 |
| 20260506215007 | 21 | 117 | 9.7 | 11.3 | 0.00 | 0.00 | 0.00 | 69 | 1020.3 |
| 20260506214507 | 21 | 217 | 6.4 | 9.7 | 0.00 | 0.00 | 0.00 | 71 | 1020.3 |
| 20260506214006 | 20 | 180 | 0.0 | 1.6 | 0.00 | 0.00 | 0.00 | 76 | 1020.3 |
| 20260506213507 | 20 | 180 | 6.4 | 8.0 | 0.00 | 0.00 | 0.00 | 78 | 1020.3 |
| 20260506213007 | 20 | 252 | 8.0 | 12.9 | 0.00 | 0.00 | 0.00 | 79 | 1020.5 |
| 20260506212507 | 20 | 135 | 9.7 | 12.9 | 0.00 | 0.00 | 0.00 | 77 | 1020.7 |
| 20260506212007 | 20 | 144 | 3.2 | 8.0 | 0.00 | 0.00 | 0.00 | 82 | 1020.7 |
| 20260506211507 | 19 | 162 | 6.4 | 9.7 | 0.00 | 0.00 | 0.00 | 82 | 1020.7 |
| 20260506211007 | 19 | 252 | 0.0 | 0.0 | 0.00 | 0.00 | 0.00 | 85 | 1020.7 |
| 20260506210507 | 19 | 315 | 0.0 | 1.6 | 0.00 | 0.00 | 0.00 | 86 | 1021.0 |
| 20260506210007 | 19 | 243 | 0.0 | 6.4 | 0.00 | 0.00 | 0.00 | 86 | 1021.0 |
| 20260506205507 | 19 | 144 | 1.6 | 6.4 | 0.00 | 0.00 | 0.00 | 85 | 1021.0 |
| 20260506205007 | 19 | 126 | 0.0 | 1.6 | 0.00 | 0.00 | 0.00 | 83 | 1020.9 |
| 20260506204507 | 19 | 135 | 0.0 | 1.6 | 0.00 | 0.00 | 0.00 | 83 | 1020.7 |
| 20260506204007 | 19 | 117 | 1.6 | 4.8 | 0.00 | 0.00 | 0.00 | 84 | 1021.0 |
| 20260506203508 | 19 | 54 | 4.8 | 8.0 | 0.00 | 0.00 | 0.00 | 84 | 1020.7 |
| 20260506203006 | 19 | 189 | 3.2 | 6.4 | 0.00 | 0.00 | 0.00 | 86 | 1020.8 |
| 20260506202507 | 19 | 0 | 4.8 | 9.7 | 0.00 | 0.00 | 0.00 | 85 | 1020.8 |
| 20260506202008 | 19 | 135 | 4.8 | 9.7 | 0.00 | 0.00 | 0.00 | 84 | 1020.7 |
| 20260506201507 | 19 | 90 | 0.0 | 0.0 | 0.00 | 0.00 | 0.00 | 87 | 1020.9 |
| 20260506201007 | 18 | 162 | 6.4 | 8.0 | 0.00 | 0.00 | 0.00 | 87 | 1021.0 |
| 20260506200507 | 18 | 207 | 4.8 | 8.0 | 0.00 | 0.00 | 0.00 | 90 | 1021.0 |
| 20260506200007 | 17 | 225 | 0.0 | 0.0 | 0.00 | 0.00 | 0.00 | 93 | 1021.0 |
| 20260506195507 | 17 | 225 | 0.0 | 0.0 | 0.00 | 0.00 | 0.00 | 93 | 1021.0 |
| 20260506195007 | 17 | 261 | 3.2 | 8.0 | 0.00 | 0.00 | 0.00 | 93 | 1021.2 |
| 20260506194507 | 17 | 225 | 1.6 | 6.4 | 0.00 | 0.00 | 0.00 | 93 | 1021.3 |
| 20260506194006 | 17 | 180 | 3.2 | 9.7 | 0.00 | 0.00 | 0.00 | 93 | 1021.3 |
| 20260506193507 | 17 | 153 | 8.0 | 8.0 | 0.00 | 0.00 | 0.00 | 93 | 1021.3 |
| 20260506193007 | 17 | 117 | 8.0 | 9.7 | 0.00 | 0.00 | 0.00 | 92 | 1021.3 |
| 20260506192507 | 17 | 54 | 8.0 | 9.7 | 0.00 | 0.00 | 0.00 | 93 | 1021.3 |
| 20260506192007 | 17 | 108 | 3.2 | 6.4 | 0.00 | 0.00 | 0.00 | 93 | 1021.3 |
| 20260506191507 | 17 | 135 | 4.8 | 9.7 | 0.00 | 0.00 | 0.00 | 92 | 1021.2 |
| 20260506191007 | 17 | 135 | 8.0 | 9.7 | 0.00 | 0.00 | 0.00 | 93 | 1021.0 |
| 20260506190507 | 17 | 135 | 3.2 | 8.0 | 0.00 | 0.00 | 0.00 | 93 | 1021.2 |
| 20260506190007 | 16 | 117 | 4.8 | 8.0 | 0.00 | 0.00 | 0.00 | 93 | 1021.3 |
| 20260506185507 | 16 | 189 | 6.4 | 9.7 | 0.00 | 0.00 | 0.00 | 94 | 1021.3 |
| 20260506185007 | 16 | 135 | 6.4 | 14.5 | 0.00 | 0.00 | 0.00 | 94 | 1021.0 |
| 20260506184506 | 16 | 135 | 1.6 | 3.2 | 0.00 | 0.00 | 0.00 | 94 | 1021.3 |
| 20260506184007 | 16 | 162 | 8.0 | 9.7 | 0.00 | 0.00 | 0.00 | 94 | 1021.2 |
| 20260506183507 | 16 | 171 | 4.8 | 9.7 | 0.00 | 0.00 | 0.00 | 94 | 1021.1 |
| 20260506183007 | 16 | 153 | 6.4 | 11.3 | 0.00 | 0.00 | 0.00 | 94 | 1021.0 |
| 20260506182507 | 16 | 90 | 4.8 | 11.3 | 0.00 | 0.00 | 0.00 | 94 | 1021.2 |
| 20260506182007 | 16 | 45 | 1.6 | 8.0 | 0.00 | 0.00 | 0.00 | 94 | 1021.3 |
| 20260506181507 | 16 | 0 | 0.0 | 1.6 | 0.00 | 0.00 | 0.00 | 94 | 1021.3 |
| 20260506181007 | 16 | 252 | 4.8 | 11.3 | 0.00 | 0.00 | 0.00 | 94 | 1021.3 |
| 20260506180507 | 15 | 171 | 6.4 | 8.0 | 0.00 | 0.00 | 0.00 | 94 | 1021.0 |
| 20260506180007 | 15 | 162 | 3.2 | 8.0 | 0.00 | 0.00 | 0.00 | 95 | 1021.2 |
| 20260506175507 | 15 | 225 | 1.6 | 6.4 | 0.00 | 0.00 | 0.00 | 95 | 1021.1 |
| 20260506175008 | 15 | 207 | 3.2 | 9.7 | 0.00 | 0.00 | 0.00 | 95 | 1021.3 |
| 20260506174506 | 15 | 153 | 3.2 | 8.0 | 0.00 | 0.00 | 0.00 | 95 | 1021.3 |
| 20260506174007 | 15 | 243 | 3.2 | 4.8 | 0.00 | 0.00 | 0.00 | 95 | 1021.2 |
| 20260506173507 | 15 | 262 | 4.8 | 8.0 | 0.00 | 0.00 | 0.00 | 94 | 1021.0 |
| 20260506173006 | 15 | 234 | 3.2 | 8.0 | 0.00 | 0.00 | 0.00 | 95 | 1021.0 |
| 20260506172508 | 15 | 45 | 1.6 | 4.8 | 0.00 | 0.00 | 0.00 | 95 | 1021.0 |
| 20260506172007 | 15 | 45 | 0.0 | 6.4 | 0.00 | 0.00 | 0.00 | 95 | 1021.0 |
| 20260506171507 | 15 | 153 | 3.2 | 8.0 | 0.00 | 0.00 | 0.00 | 95 | 1021.0 |
| 20260506171007 | 15 | 225 | 1.6 | 4.8 | 0.00 | 0.00 | 0.00 | 95 | 1021.0 |
| 20260506170507 | 15 | 225 | 1.6 | 1.6 | 0.00 | 0.00 | 0.00 | 95 | 1021.0 |
| 20260506170007 | 15 | 225 | 1.6 | 3.2 | 0.00 | 0.00 | 0.00 | 95 | 1021.0 |
| 20260506165508 | 15 | 243 | 4.8 | 9.7 | 0.00 | 0.00 | 0.00 | 95 | 1021.0 |
| 20260506165007 | 15 | 180 | 4.8 | 8.0 | 0.00 | 0.00 | 0.00 | 95 | 1021.0 |
| 20260506164506 | 15 | 315 | 4.8 | 9.7 | 0.00 | 0.00 | 0.00 | 95 | 1021.0 |
| 20260506164007 | 15 | 63 | 4.8 | 9.7 | 0.00 | 0.00 | 0.00 | 95 | 1021.0 |
| 20260506163507 | 15 | 207 | 4.8 | 8.0 | 0.00 | 0.00 | 0.00 | 95 | 1021.0 |
| 20260506163007 | 15 | 108 | 3.2 | 8.0 | 0.00 | 0.00 | 0.00 | 95 | 1021.1 |
| 20260506162507 | 15 | 270 | 0.0 | 1.6 | 0.00 | 0.00 | 0.00 | 95 | 1021.0 |
| 20260506162007 | 14 | 270 | 3.2 | 8.0 | 0.00 | 0.00 | 0.00 | 95 | 1021.0 |
| 20260506161507 | 14 | 270 | 0.0 | 1.6 | 0.00 | 0.00 | 0.00 | 95 | 1020.8 |
| 20260506161007 | 14 | 270 | 0.0 | 0.0 | 0.00 | 0.00 | 0.00 | 95 | 1020.7 |
| 20260506160507 | 14 | 261 | 1.6 | 6.4 | 0.00 | 0.00 | 0.00 | 96 | 1021.0 |
| 20260506160007 | 14 | 225 | 1.6 | 8.0 | 0.00 | 0.00 | 0.00 | 96 | 1020.7 |
| 20260506155506 | 13 | 225 | 1.6 | 4.8 | 0.00 | 0.00 | 0.00 | 96 | 1020.7 |
| 20260506155007 | 13 | 306 | 1.6 | 4.8 | 0.00 | 0.00 | 0.00 | 96 | 1020.5 |
| 20260506154507 | 13 | 315 | 0.0 | 0.0 | 0.00 | 0.00 | 0.00 | 96 | 1020.3 |
| 20260506154007 | 13 | 315 | 0.0 | 0.0 | 0.00 | 0.00 | 0.00 | 97 | 1020.3 |
| 20260506153507 | 13 | 315 | 0.0 | 0.0 | 0.00 | 0.00 | 0.00 | 97 | 1020.4 |
| 20260506153007 | 13 | 315 | 0.0 | 1.6 | 0.00 | 0.00 | 0.00 | 97 | 1020.8 |
| 20260506152507 | 13 | 315 | 1.6 | 6.4 | 0.00 | 0.00 | 0.00 | 97 | 1021.0 |
| 20260506152007 | 13 | 315 | 1.6 | 6.4 | 0.00 | 0.00 | 0.00 | 97 | 1021.0 |
| 20260506151507 | 13 | 315 | 0.0 | 0.0 | 0.00 | 0.00 | 0.00 | 97 | 1021.0 |
| 20260506151008 | 13 | 315 | 1.6 | 4.8 | 0.00 | 0.00 | 0.00 | 97 | 1021.0 |
| 20260506150507 | 13 | 315 | 3.2 | 8.0 | 0.00 | 0.00 | 0.00 | 97 | 1021.0 |
| 20260506150007 | 13 | 205 | 1.6 | 3.2 | 0.00 | 0.00 | 0.00 | 97 | 1021.0 |
| 20260506145507 | 13 | 270 | 0.0 | 0.0 | 0.00 | 0.00 | 0.00 | 97 | 1021.0 |
| 20260506145007 | 13 | 270 | 0.0 | 1.6 | 0.00 | 0.00 | 0.00 | 97 | 1020.9 |
| 20260506144506 | 13 | 270 | 1.6 | 4.8 | 0.00 | 0.00 | 0.00 | 97 | 1020.7 |
| 20260506144006 | 13 | 261 | 1.6 | 8.0 | 0.00 | 0.00 | 0.00 | 97 | 1020.8 |
| 20260506143507 | 13 | 261 | 1.6 | 4.8 | 0.00 | 0.00 | 0.00 | 97 | 1020.7 |
| 20260506143007 | 13 | 279 | 1.6 | 3.2 | 0.00 | 0.00 | 0.00 | 97 | 1020.7 |
| 20260506142507 | 13 | 225 | 0.0 | 0.0 | 0.00 | 0.00 | 0.00 | 97 | 1020.5 |
| 20260506142007 | 13 | 225 | 0.0 | 3.2 | 0.00 | 0.00 | 0.00 | 97 | 1020.3 |
| 20260506141507 | 13 | 225 | 1.6 | 3.2 | 0.00 | 0.00 | 0.00 | 97 | 1020.2 |
| 20260506141007 | 13 | 225 | 0.0 | 0.0 | 0.00 | 0.00 | 0.00 | 97 | 1020.0 |
| 20260506140506 | 13 | 225 | 1.6 | 3.2 | 0.00 | 0.00 | 0.00 | 97 | 1020.3 |
| 20260506140007 | 13 | 225 | 0.0 | 0.0 | 0.00 | 0.00 | 0.00 | 97 | 1020.3 |
| 20260506135507 | 13 | 252 | 1.6 | 6.4 | 0.00 | 0.00 | 0.00 | 97 | 1020.3 |
| 20260506135007 | 13 | 306 | 1.6 | 6.4 | 0.00 | 0.00 | 0.00 | 98 | 1020.1 |
| 20260506134508 | 13 | 306 | 0.0 | 1.6 | 0.00 | 0.00 | 0.00 | 98 | 1020.0 |
| 20260506134006 | 13 | 297 | 0.0 | 3.2 | 0.00 | 0.00 | 0.00 | 98 | 1020.0 |
| 20260506133507 | 13 | 297 | 0.0 | 1.6 | 0.00 | 0.00 | 0.00 | 98 | 1020.0 |
| 20260506133007 | 13 | 297 | 0.0 | 4.8 | 0.00 | 0.00 | 0.00 | 98 | 1020.0 |
| 20260506132507 | 13 | 315 | 1.6 | 4.8 | 0.00 | 0.00 | 0.00 | 98 | 1020.0 |
| 20260506132007 | 13 | 306 | 0.0 | 0.0 | 0.00 | 0.00 | 0.00 | 97 | 1019.9 |
| 20260506131507 | 13 | 288 | 0.0 | 0.0 | 0.00 | 0.00 | 0.00 | 97 | 1019.6 |
| 20260506131007 | 13 | 315 | 0.0 | 0.0 | 0.00 | 0.00 | 0.00 | 97 | 1019.6 |
| 20260506130507 | 13 | 306 | 0.0 | 0.0 | 0.00 | 0.00 | 0.00 | 97 | 1019.6 |
| 20260506130006 | 13 | 297 | 0.0 | 0.0 | 0.00 | 0.00 | 0.00 | 97 | 1019.6 |
| 20260506125507 | 13 | 297 | 0.0 | 0.0 | 0.00 | 0.00 | 0.00 | 97 | 1019.6 |
| 20260506125007 | 13 | 306 | 0.0 | 0.0 | 0.00 | 0.00 | 0.00 | 97 | 1019.6 |
| 20260506124508 | 13 | 306 | 0.0 | 0.0 | 0.00 | 0.00 | 0.00 | 97 | 1019.6 |
| 20260506124006 | 13 | 304 | 0.0 | 0.0 | 0.00 | 0.00 | 0.00 | 97 | 1019.6 |
| 20260506123507 | 13 | 306 | 0.0 | 0.0 | 0.00 | 0.00 | 0.00 | 97 | 1019.3 |
| 20260506123007 | 13 | 297 | 0.0 | 0.0 | 0.00 | 0.00 | 0.00 | 97 | 1019.5 |
| 20260506122507 | 13 | 306 | 0.0 | 0.0 | 0.00 | 0.00 | 0.00 | 97 | 1019.6 |
| 20260506122006 | 13 | 297 | 0.0 | 0.0 | 0.00 | 0.00 | 0.00 | 97 | 1019.6 |
| 20260506121507 | 13 | 297 | 0.0 | 0.0 | 0.00 | 0.00 | 0.00 | 97 | 1019.6 |
| 20260506121007 | 13 | 288 | 0.0 | 1.6 | 0.00 | 0.00 | 0.00 | 97 | 1019.6 |
| 20260506120507 | 13 | 306 | 1.6 | 4.8 | 0.00 | 0.00 | 0.00 | 97 | 1019.6 |
| 20260506120007 | 13 | 244 | 4.8 | 9.7 | 0.00 | 0.00 | 0.00 | 97 | 1019.6 |
| 20260506115506 | 13 | 181 | 8.0 | 12.9 | 0.00 | 0.00 | 0.00 | 97 | 1019.4 |
| 20260506115007 | 13 | 243 | 3.2 | 8.0 | 0.00 | 0.00 | 0.00 | 97 | 1019.3 |
| 20260506114507 | 13 | 252 | 3.2 | 8.0 | 0.00 | 0.00 | 0.00 | 97 | 1019.3 |
| 20260506114007 | 13 | 216 | 3.2 | 8.0 | 0.00 | 0.00 | 0.00 | 97 | 1019.3 |
| 20260506113507 | 13 | 117 | 8.0 | 11.3 | 0.00 | 0.00 | 0.00 | 97 | 1019.3 |
| 20260506113007 | 13 | 270 | 3.2 | 6.4 | 0.00 | 0.00 | 0.00 | 97 | 1019.3 |
| 20260506112506 | 13 | 297 | 3.2 | 6.4 | 0.00 | 0.00 | 0.00 | 97 | 1019.3 |
| 20260506112007 | 13 | 234 | 1.6 | 9.7 | 0.00 | 0.00 | 0.00 | 96 | 1019.2 |
| 20260506111508 | 13 | 315 | 0.0 | 0.0 | 0.00 | 0.00 | 0.00 | 96 | 1019.0 |
| 20260506111007 | 13 | 315 | 3.2 | 8.0 | 0.00 | 0.00 | 0.00 | 96 | 1019.0 |
| 20260506110507 | 13 | 54 | 1.6 | 6.4 | 0.00 | 0.00 | 0.00 | 96 | 1019.0 |